Home   Weather   Albany   Past weeks

Flag for USA Past Weather in Albany, New York, USA — Yesterday and Last 2 Weeks

Now
75 °F

Partly sunny.


Feels Like: 78 °F
Forecast: 55 / 76 °F
Wind: 10 mph from South

Location: Albany County Airport

Current Time: Jul 26, 2017 at 6:41:49 pm

Latest Report: Jul 26, 2017 at 5:51 pm


Visibility: 10 mi

Pressure: 30.10 "Hg

Humidity: 54%

Dew Point: 57 °F

Location of AlbanyLocation

Past Weather in Albany — Graph

°F

Albany Temperature Yesterday

Maximum temperature yesterday: 66 °F (at 5:51 pm)
Minimum temperature yesterday: 58 °F (at 4:51 am)
Average temperature yesterday: 61 °F

High & Low Weather Summary for the Past Weeks

 TemperatureHumidityPressure
High87 °F (Jul 17, 1:16 pm)97% (Jul 18, 5:51 am)30.29 "Hg (Jul 18, 5:51 am)
Low58 °F (Jul 24, 9:51 am)35% (Jul 16, 5:51 pm)29.77 "Hg (Jul 23, 2:51 am)
Average70 °F76%29.98 "Hg
* Reported Jul 11 4:51 pm — Jul 26 4:51 pm, Albany. Weather by CustomWeather, © 2017

Note: Actual official high and low records may vary slightly from our data, if they occured in-between our weather recording intervals... More about our weather records

Advertising

Albany Weather History for the Previous 24 Hours

Scroll right to see more
 ConditionsComfort  
Time TempWeatherWind HumidityBarometerVisibility
4:51 pm
Wed, Jul 26
77 °FPartly sunny.10 mph52%30.13 "Hg10 mi
3:51 pm77 °FBroken clouds.6 mph52%30.14 "Hg10 mi
2:51 pm77 °FPartly sunny.7 mph48%30.16 "Hg10 mi
1:51 pm76 °FScattered clouds.10 mph47%30.18 "Hg10 mi
12:51 pm73 °FPassing clouds.9 mph53%30.20 "Hg10 mi
11:51 am71 °FPassing clouds.No wind63%30.22 "Hg10 mi
11:01 am68 °FScattered clouds.No wind76%30.25 "Hg10 mi
10:29 am66 °FBroken clouds.3 mph78%30.26 "Hg10 mi
9:51 am62 °FFog.3 mph90%30.26 "Hg5 mi
8:51 am61 °FFog.No wind93%30.29 "Hg1 mi
7:59 am60 °FFog.No wind93%30.27 "Hg1 mi
7:39 am59 °FFog.No wind96%30.27 "Hg1 mi
7:27 am59 °FFog.No wind96%30.26 "Hg0 mi
6:58 am59 °FFog.No wind96%30.26 "Hg0 mi
5:51 am59 °FFog.No wind93%30.25 "Hg0 mi
5:42 am58 °FFog.No wind97%30.25 "Hg0 mi
5:35 am58 °FFog.No wind97%30.25 "Hg0 mi
5:17 am58 °FFog.No wind93%30.25 "Hg1 mi
5:06 am58 °FFog.No wind93%30.25 "Hg1 mi
4:51 am58 °FFog.No wind93%30.25 "Hg5 mi
4:36 am58 °FFog.No wind93%30.25 "Hg10 mi
3:51 am58 °FFog.No wind93%30.23 "Hg10 mi
3:35 am59 °FFog.No wind93%30.24 "Hg10 mi
2:51 am58 °FFog.No wind93%30.24 "Hg10 mi
1:51 am62 °FPassing clouds.No wind86%30.24 "Hg10 mi
12:51 am63 °FOvercast.No wind87%30.24 "Hg10 mi
11:51 pm
Tue, Jul 25
63 °FOvercast.No wind90%30.24 "Hg10 mi
10:51 pm63 °FOvercast.No wind90%30.24 "Hg10 mi
9:51 pm64 °FMostly cloudy.No wind84%30.23 "Hg10 mi
8:51 pm64 °FMostly cloudy.No wind84%30.22 "Hg10 mi
7:51 pm65 °FBroken clouds.3 mph76%30.20 "Hg10 mi
7:24 pm66 °FBroken clouds.No wind75%30.19 "Hg10 mi
6:51 pm66 °FPartly sunny.5 mph73%30.18 "Hg10 mi
Weather by CustomWeather, © 2017

See weather overviewHow to use our weather pages